Regional Weather Roundup
Issued by NWS

Home | Current Version | Previous Version | Graphics & Text | Print | Product List | Glossary On
Versions: 1 2 3 4 5 6 7 8 9 10 11 12 13 14 15 16 17 18 19 20 21 22 23 24 25 26 27 28 29 30 31 32 33 34 35 36 37 38 39 40 41 42 43 44 45 46 47 48 49 50
000
ASUS44 KMEG 250910
RWRTN
TENNESSEE HOURLY STATE WEATHER ROUNDUP
NATIONAL WEATHER SERVICE MEMPHIS TN
400 AM CDT THU AUG 25 2016

TNZ002-004-019-021-049-052-054-088>092-251000-
WEST TENNESSEE

CITY           SKY/WX    TMP DP  RH WIND       PRES   REMARKS
MEMPHIS INTL   PTCLDY    81  74  79 SW5       30.09S
NWS MEMPHIS      N/A     76 N/A N/A MISG        N/A
JACKSON        CLEAR     74  74 100 CALM      30.11R
DYERSBURG      CLEAR    N/A N/A N/A MISG        N/A
UNION CITY     CLEAR     72  72 100 CALM      30.08S
PARIS          CLEAR     72  70  94 CALM      30.11F
LEXINGTON      CLEAR     72  72 100 CALM      30.11S
$$

TNZ008-025-027-028-033-062-065-066-251000-
NORTH MIDDLE TENNESSEE

CITY           SKY/WX    TMP DP  RH WIND       PRES   REMARKS
NASHVILLE      PTCLDY    76  71  85 CALM      30.14R
CLARKSVILLE    CLEAR     72  71  97 CALM      30.11S FOG
COOKEVILLE     CLEAR     70  70 100 CALM      30.17R
CROSSVILLE     CLEAR     70  68  93 CALM      30.23R
$$

TNZ061-075-076-078-094-096-097-251000-
SOUTH MIDDLE TENNESSEE

CITY           SKY/WX    TMP DP  RH WIND       PRES   REMARKS
FAYETTEVILLE   CLOUDY    75  72  88 S5        30.16S
TULLAHOMA      CLEAR     72  70  94 CALM      30.18S
WINCHESTER     CLOUDY    73  72  94 SE5       30.18R
MCMINNVILLE    MOCLDY    72  72 100 CALM      30.17S
COLUMBIA       CLEAR    N/A N/A N/A CALM      30.13R
SHELBYVILLE    CLEAR     75  73  94 SE3       30.16S
$$

TNZ017-018-042-046-047-251000-
NORTHEAST TENNESSEE

CITY           SKY/WX    TMP DP  RH WIND       PRES   REMARKS
TRI CITIES     PTCLDY    67  66  97 CALM      30.21R FOG
ELIZABETHTON   CLOUDY    70  66  88 CALM      30.21S
$$

TNZ012-013-036-069-073-074-251000-
CENTRAL EAST TENNESSEE

CITY           SKY/WX    TMP DP  RH WIND       PRES   REMARKS
KNOXVILLE      PTCLDY    72  69  90 CALM      30.18R
OAK RIDGE      CLEAR     74  71  91 CALM      30.20R
GATLINBURG     PTCLDY    72  70  94 CALM      30.19R
MORRISTOWN     CLOUDY    72  70  94 CALM      30.19S
$$

TNZ083-085-099-251000-
SOUTHEAST TENNESSEE

CITY           SKY/WX    TMP DP  RH WIND       PRES   REMARKS
CHATTANOOGA    PTCLDY    74  70  87 CALM      30.18R
$$

SKY/WX REPORTED AS FAIR MEANS FEW OR NO CLOUDS BELOW
12 THOUSAND FEET.





USA.gov is the U.S. government's official web portal to all federal, state and local government web resources and services.